sat.trackr.live / text

‹ back to catalog

STARLINK-3981

NORAD 52687 · 2022-053AH

PAYLOAD ACTIVE UNKNOWN

§ Identity

Operator
Country
US
Launch date
2022-05-18
Launch site
AFETR
Launch vehicle
Mass (kg)
RCS (m²)

Purposes: comms

External: N2YO · Heavens-Above · Gunter

§ Orbital elements

Epoch: 2026-05-24T18:27:10.405152Z

Period
95.44 min
Inclination
53.2140°
Eccentricity
0.0000821
Mean motion
15.08831027 rev/d
Perigee alt
539.2 km
Apogee alt
540.3 km
Semi-major
6,917.9 km
B*
1.5725e-4
RAAN
162.5892°
Arg perigee
75.0363°
Mean anomaly
285.0721°
Rev number
22,260

§ Raw data

STARLINK-39811 52687U 22053AH  26144.76887043  .00002215  00000+0  15725-3 0  99922 52687  53.2140 162.5892 0000821  75.0363 285.0721 15.08831027222605

JSON: /api/v1/satellites/52687 · /tle

For live sub-satellite position, see the globe view (requires WebGL).

§ Visibility from observer

Set your observer location to see the next 7 days of passes ≥ 10°. The values pass through the URL so the page stays shareable.

No JS? Fill the form by hand. The geolocation button needs JavaScript.